Time,TemperatureF,DewpointF,PressureIn,WindDirection,WindDirectionDegrees,WindSpeedMPH,WindSpeedGustMPH,Humidity,HourlyPrecipIn,Conditions,Clouds,dailyrainin,SoftwareType,DateUTC
2013-04-25 00:06:00,-999.0,-99.9,30.18,North,-999,-999.0,-999.0,-999,0.00,,,0.00,weatherlink.com 1.10,2013-04-25 04:06:00,
2013-04-25 00:22:00,-999.0,-99.9,30.18,North,-999,-999.0,-999.0,-999,0.00,,,0.00,weatherlink.com 1.10,2013-04-25 04:22:00,
2013-04-25 00:37:00,-999.0,-99.9,30.19,North,-999,-999.0,-999.0,-999,0.00,,,0.00,weatherlink.com 1.10,2013-04-25 04:37:00,
2013-04-25 00:52:00,-999.0,-99.9,30.18,North,-999,-999.0,-999.0,-999,0.00,,,0.00,weatherlink.com 1.10,2013-04-25 04:52:00,
2013-04-25 01:07:00,-999.0,-99.9,30.18,North,-999,-999.0,-999.0,-999,0.00,,,0.00,weatherlink.com 1.10,2013-04-25 05:07:00,
2013-04-25 01:22:00,-999.0,-99.9,30.19,North,-999,-999.0,-999.0,-999,0.00,,,0.00,weatherlink.com 1.10,2013-04-25 05:22:00,
2013-04-25 01:37:00,-999.0,-99.9,30.19,North,-999,-999.0,-999.0,-999,0.00,,,0.00,weatherlink.com 1.10,2013-04-25 05:37:00,
2013-04-25 01:52:00,-999.0,-99.9,30.20,North,-999,-999.0,-999.0,-999,0.00,,,0.00,weatherlink.com 1.10,2013-04-25 05:52:00,
2013-04-25 02:07:00,-999.0,-99.9,30.20,North,-999,-999.0,-999.0,-999,0.00,,,0.00,weatherlink.com 1.10,2013-04-25 06:07:00,
2013-04-25 02:22:00,-999.0,-99.9,30.20,North,-999,-999.0,-999.0,-999,0.00,,,0.00,weatherlink.com 1.10,2013-04-25 06:22:00,
2013-04-25 02:37:00,-999.0,-99.9,30.20,North,-999,-999.0,-999.0,-999,0.00,,,0.00,weatherlink.com 1.10,2013-04-25 06:37:00,
2013-04-25 02:52:00,-999.0,-99.9,30.21,North,-999,-999.0,-999.0,-999,0.00,,,0.00,weatherlink.com 1.10,2013-04-25 06:52:00,
2013-04-25 03:07:00,-999.0,-99.9,30.21,North,-999,-999.0,-999.0,-999,0.00,,,0.00,weatherlink.com 1.10,2013-04-25 07:07:00,
2013-04-25 03:22:00,-999.0,-99.9,30.21,North,-999,-999.0,-999.0,-999,0.00,,,0.00,weatherlink.com 1.10,2013-04-25 07:22:00,
2013-04-25 03:37:00,-999.0,-99.9,30.21,North,-999,-999.0,-999.0,-999,0.00,,,0.00,weatherlink.com 1.10,2013-04-25 07:37:00,
2013-04-25 03:53:00,-999.0,-99.9,30.22,North,-999,-999.0,-999.0,-999,0.00,,,0.00,weatherlink.com 1.10,2013-04-25 07:53:00,
2013-04-25 04:08:00,-999.0,-99.9,30.22,North,-999,-999.0,-999.0,-999,0.00,,,0.00,weatherlink.com 1.10,2013-04-25 08:08:00,
2013-04-25 04:23:00,-999.0,-99.9,30.22,North,-999,-999.0,-999.0,-999,0.00,,,0.00,weatherlink.com 1.10,2013-04-25 08:23:00,
2013-04-25 04:38:00,-999.0,-99.9,30.23,North,-999,-999.0,-999.0,-999,0.00,,,0.00,weatherlink.com 1.10,2013-04-25 08:38:00,
2013-04-25 04:53:00,-999.0,-99.9,30.23,North,-999,-999.0,-999.0,-999,0.00,,,0.00,weatherlink.com 1.10,2013-04-25 08:53:00,
2013-04-25 05:08:00,-999.0,-99.9,30.23,North,-999,-999.0,-999.0,-999,0.00,,,0.00,weatherlink.com 1.10,2013-04-25 09:08:00,
2013-04-25 05:23:00,-999.0,-99.9,30.23,North,-999,-999.0,-999.0,-999,0.00,,,0.00,weatherlink.com 1.10,2013-04-25 09:23:00,
2013-04-25 05:38:00,-999.0,-99.9,30.23,North,-999,-999.0,-999.0,-999,0.00,,,0.00,weatherlink.com 1.10,2013-04-25 09:38:00,
2013-04-25 05:53:00,-999.0,-99.9,30.24,North,-999,-999.0,-999.0,-999,0.00,,,0.00,weatherlink.com 1.10,2013-04-25 09:53:00,
2013-04-25 06:08:00,-999.0,-99.9,30.24,North,-999,-999.0,-999.0,-999,0.00,,,0.00,weatherlink.com 1.10,2013-04-25 10:08:00,
2013-04-25 06:23:00,-999.0,-99.9,30.25,North,-999,-999.0,-999.0,-999,0.00,,,0.00,weatherlink.com 1.10,2013-04-25 10:23:00,
2013-04-25 06:38:00,-999.0,-99.9,30.25,North,-999,-999.0,-999.0,-999,0.00,,,0.00,weatherlink.com 1.10,2013-04-25 10:38:00,
2013-04-25 06:53:00,-999.0,-99.9,30.26,North,-999,-999.0,-999.0,-999,0.00,,,0.00,weatherlink.com 1.10,2013-04-25 10:53:00,
2013-04-25 07:09:00,-999.0,-99.9,30.26,North,-999,-999.0,-999.0,-999,0.00,,,0.00,weatherlink.com 1.10,2013-04-25 11:09:00,
2013-04-25 07:24:00,-999.0,-99.9,30.26,North,-999,-999.0,-999.0,-999,0.00,,,0.00,weatherlink.com 1.10,2013-04-25 11:24:00,
2013-04-25 07:39:00,-999.0,-99.9,30.27,North,-999,-999.0,-999.0,-999,0.00,,,0.00,weatherlink.com 1.10,2013-04-25 11:39:00,
2013-04-25 07:54:00,-999.0,-99.9,30.27,North,-999,-999.0,-999.0,-999,0.00,,,0.00,weatherlink.com 1.10,2013-04-25 11:54:00,
2013-04-25 08:09:00,-999.0,-99.9,30.27,North,-999,-999.0,-999.0,-999,0.00,,,0.00,weatherlink.com 1.10,2013-04-25 12:09:00,
2013-04-25 08:24:00,-999.0,-99.9,30.28,North,-999,-999.0,-999.0,-999,0.00,,,0.00,weatherlink.com 1.10,2013-04-25 12:24:00,
2013-04-25 08:39:00,-999.0,-99.9,30.28,North,-999,-999.0,-999.0,-999,0.00,,,0.00,weatherlink.com 1.10,2013-04-25 12:39:00,
2013-04-25 08:54:00,-999.0,-99.9,30.28,North,-999,-999.0,-999.0,-999,0.00,,,0.00,weatherlink.com 1.10,2013-04-25 12:54:00,
2013-04-25 09:09:00,-999.0,-99.9,30.28,North,-999,-999.0,-999.0,-999,0.00,,,0.00,weatherlink.com 1.10,2013-04-25 13:09:00,
2013-04-25 09:24:00,-999.0,-99.9,30.28,North,-999,-999.0,-999.0,-999,0.00,,,0.00,weatherlink.com 1.10,2013-04-25 13:24:00,
2013-04-25 09:39:00,-999.0,-99.9,30.28,North,-999,-999.0,-999.0,-999,0.00,,,0.00,weatherlink.com 1.10,2013-04-25 13:39:00,
2013-04-25 09:54:00,-999.0,-99.9,30.28,North,-999,-999.0,-999.0,-999,0.00,,,0.00,weatherlink.com 1.10,2013-04-25 13:54:00,
2013-04-25 10:09:00,-999.0,-99.9,30.28,North,-999,-999.0,-999.0,-999,0.00,,,0.00,weatherlink.com 1.10,2013-04-25 14:09:00,
2013-04-25 10:25:00,-999.0,-99.9,30.28,North,-999,-999.0,-999.0,-999,0.00,,,0.00,weatherlink.com 1.10,2013-04-25 14:25:00,
2013-04-25 10:40:00,-999.0,-99.9,30.28,North,-999,-999.0,-999.0,-999,0.00,,,0.00,weatherlink.com 1.10,2013-04-25 14:40:00,
2013-04-25 10:55:00,-999.0,-99.9,30.28,North,-999,-999.0,-999.0,-999,0.00,,,0.00,weatherlink.com 1.10,2013-04-25 14:55:00,
2013-04-25 11:10:00,-999.0,-99.9,30.28,North,-999,-999.0,-999.0,-999,0.00,,,0.00,weatherlink.com 1.10,2013-04-25 15:10:00,
2013-04-25 11:25:00,-999.0,-99.9,30.28,North,-999,-999.0,-999.0,-999,0.00,,,0.00,weatherlink.com 1.10,2013-04-25 15:25:00,
2013-04-25 11:40:00,-999.0,-99.9,30.28,North,-999,-999.0,-999.0,-999,0.00,,,0.00,weatherlink.com 1.10,2013-04-25 15:40:00,
2013-04-25 12:10:00,-999.0,-99.9,30.27,North,-999,-999.0,-999.0,-999,0.00,,,0.00,weatherlink.com 1.10,2013-04-25 16:10:00,
2013-04-25 12:25:00,-999.0,-99.9,30.27,North,-999,-999.0,-999.0,-999,0.00,,,0.00,weatherlink.com 1.10,2013-04-25 16:25:00,
2013-04-25 12:41:00,-999.0,-99.9,30.26,North,-999,-999.0,-999.0,-999,0.00,,,0.00,weatherlink.com 1.10,2013-04-25 16:41:00,
2013-04-25 12:55:00,-999.0,-99.9,30.26,North,-999,-999.0,-999.0,-999,0.00,,,0.00,weatherlink.com 1.10,2013-04-25 16:55:00,
2013-04-25 13:10:00,-999.0,-99.9,30.25,North,-999,-999.0,-999.0,-999,0.00,,,0.00,weatherlink.com 1.10,2013-04-25 17:10:00,
2013-04-25 13:25:00,-999.0,-99.9,30.25,North,-999,-999.0,-999.0,-999,0.00,,,0.00,weatherlink.com 1.10,2013-04-25 17:25:00,
2013-04-25 13:40:00,-999.0,-99.9,30.25,North,-999,-999.0,-999.0,-999,0.00,,,0.00,weatherlink.com 1.10,2013-04-25 17:40:00,
2013-04-25 13:56:00,-999.0,-99.9,30.25,North,-999,-999.0,-999.0,-999,0.00,,,0.00,weatherlink.com 1.10,2013-04-25 17:56:00,
2013-04-25 14:11:00,-999.0,-99.9,30.24,North,-999,-999.0,-999.0,-999,0.00,,,0.00,weatherlink.com 1.10,2013-04-25 18:11:00,
2013-04-25 14:26:00,52.7,29.0,30.24,WSW,243,15.0,20.0,41,0.00,,,0.00,weatherlink.com 1.10,2013-04-25 18:26:00,
2013-04-25 14:41:00,52.6,29.0,30.23,SSE,159,11.0,16.0,40,0.00,,,0.00,weatherlink.com 1.10,2013-04-25 18:41:00,
2013-04-25 14:56:00,53.4,29.0,30.23,WSW,258,8.0,13.0,39,0.00,,,0.00,weatherlink.com 1.10,2013-04-25 18:56:00,
2013-04-25 15:11:00,53.8,28.0,30.23,SSW,195,5.0,16.0,37,0.00,,,0.00,weatherlink.com 1.10,2013-04-25 19:11:00,
2013-04-25 15:26:00,53.8,27.0,30.22,SSW,208,3.0,17.0,36,0.00,,,0.00,weatherlink.com 1.10,2013-04-25 19:26:00,
2013-04-25 15:41:00,54.7,28.0,30.21,SSW,204,3.0,16.0,36,0.00,,,0.00,weatherlink.com 1.10,2013-04-25 19:41:00,
2013-04-25 15:56:00,55.1,28.0,30.21,SSW,207,5.0,15.0,35,0.00,,,0.00,weatherlink.com 1.10,2013-04-25 19:56:00,
2013-04-25 16:11:00,55.4,29.0,30.20,West,274,6.0,16.0,36,0.00,,,0.00,weatherlink.com 1.10,2013-04-25 20:11:00,
2013-04-25 16:26:00,55.8,29.0,30.20,WNW,286,7.0,13.0,36,0.00,,,0.00,weatherlink.com 1.10,2013-04-25 20:26:00,
2013-04-25 16:41:00,55.8,28.0,30.20,West,277,6.0,16.0,35,0.00,,,0.00,weatherlink.com 1.10,2013-04-25 20:41:00,
2013-04-25 16:56:00,55.8,29.0,30.20,WSW,248,10.0,15.0,36,0.00,,,0.00,weatherlink.com 1.10,2013-04-25 20:56:00,
2013-04-25 17:11:00,55.8,30.0,30.20,West,281,9.0,16.0,37,0.00,,,0.00,weatherlink.com 1.10,2013-04-25 21:11:00,
2013-04-25 17:26:00,55.7,31.0,30.21,WNW,286,7.0,18.0,39,0.00,,,0.00,weatherlink.com 1.10,2013-04-25 21:26:00,
2013-04-25 17:41:00,55.9,30.0,30.21,WSW,255,14.0,21.0,37,0.00,,,0.00,weatherlink.com 1.10,2013-04-25 21:41:00,
2013-04-25 17:56:00,55.3,32.0,30.22,West,271,9.0,17.0,41,0.00,,,0.00,weatherlink.com 1.10,2013-04-25 21:56:00,
2013-04-25 18:11:00,55.9,32.0,30.22,West,268,7.0,14.0,41,0.00,,,0.00,weatherlink.com 1.10,2013-04-25 22:11:00,
2013-04-25 18:26:00,55.4,31.0,30.22,WNW,283,10.0,19.0,40,0.00,,,0.00,weatherlink.com 1.10,2013-04-25 22:26:00,
2013-04-25 18:41:00,55.4,31.0,30.22,WSW,257,5.0,19.0,40,0.00,,,0.00,weatherlink.com 1.10,2013-04-25 22:41:00,
2013-04-25 18:56:00,55.1,33.0,30.23,West,269,9.0,15.0,43,0.00,,,0.00,weatherlink.com 1.10,2013-04-25 22:56:00,
2013-04-25 19:11:00,54.9,31.0,30.24,WSW,242,10.0,14.0,41,0.00,,,0.00,weatherlink.com 1.10,2013-04-25 23:11:00,
2013-04-25 19:26:00,54.9,31.0,30.24,WNW,287,5.0,18.0,41,0.00,,,0.00,weatherlink.com 1.10,2013-04-25 23:26:00,
2013-04-25 19:41:00,54.8,32.0,30.25,West,274,7.0,13.0,42,0.00,,,0.00,weatherlink.com 1.10,2013-04-25 23:41:00,
2013-04-25 19:56:00,54.1,35.0,30.26,WNW,284,9.0,15.0,48,0.00,,,0.00,weatherlink.com 1.10,2013-04-25 23:56:00,
2013-04-25 20:11:00,53.4,34.0,30.26,West,270,3.0,16.0,48,0.00,,,0.00,weatherlink.com 1.10,2013-04-26 00:11:00,
2013-04-25 20:26:00,52.7,36.0,30.27,West,280,5.0,15.0,53,0.00,,,0.00,weatherlink.com 1.10,2013-04-26 00:26:00,
2013-04-25 20:41:00,52.2,34.0,30.28,WNW,298,5.0,10.0,51,0.00,,,0.00,weatherlink.com 1.10,2013-04-26 00:41:00,
2013-04-25 20:56:00,52.0,36.0,30.30,West,276,9.0,11.0,55,0.00,,,0.00,weatherlink.com 1.10,2013-04-26 00:56:00,
2013-04-25 21:11:00,49.8,38.0,30.32,WNW,298,7.0,15.0,65,0.00,,,0.00,weatherlink.com 1.10,2013-04-26 01:11:00,
2013-04-25 21:26:00,48.0,39.0,30.33,WNW,286,5.0,10.0,72,0.00,,,0.00,weatherlink.com 1.10,2013-04-26 01:26:00,
2013-04-25 21:41:00,47.5,40.0,30.34,NW,320,3.0,8.0,76,0.00,,,0.00,weatherlink.com 1.10,2013-04-26 01:41:00,
2013-04-25 21:56:00,45.8,39.0,30.35,WNW,293,7.0,12.0,76,0.00,,,0.00,weatherlink.com 1.10,2013-04-26 01:56:00,
2013-04-25 22:11:00,45.2,39.0,30.36,NW,322,2.0,4.0,78,0.00,,,0.00,weatherlink.com 1.10,2013-04-26 02:11:00,
2013-04-25 22:27:00,44.8,39.0,30.36,NNW,333,3.0,4.0,80,0.01,,,0.01,weatherlink.com 1.10,2013-04-26 02:27:00,
2013-04-25 22:42:00,44.5,39.0,30.36,SSE,161,1.0,2.0,80,0.01,,,0.01,weatherlink.com 1.10,2013-04-26 02:42:00,
2013-04-25 22:57:00,44.8,39.0,30.36,South,177,0.0,3.0,81,0.01,,,0.01,weatherlink.com 1.10,2013-04-26 02:57:00,
2013-04-25 23:12:00,44.9,40.0,30.36,WSW,242,2.0,3.0,82,0.01,,,0.01,weatherlink.com 1.10,2013-04-26 03:12:00,
2013-04-25 23:27:00,44.7,41.0,30.36,WSW,245,1.0,1.0,85,0.00,,,0.01,weatherlink.com 1.10,2013-04-26 03:27:00,
2013-04-25 23:42:00,44.7,41.0,30.37,SW,229,1.0,2.0,86,0.00,,,0.00,weatherlink.com 1.10,2013-04-26 03:42:00,
2013-04-25 23:57:00,44.5,41.0,30.37,SW,233,0.0,2.0,86,0.00,,,0.00,weatherlink.com 1.10,2013-04-26 03:57:00,